User: anonymous
Location: Caltech
(34.1382°N, 118.1253°W)
Time: 09:39:08
(UTC-07:00)
Language:

Aureole 3 Rocket - Orbit

View from above orbital plane
View from above orbital plane
View from above satellite
View from above satellite

Ground track
Ground track

The orbit data is extracted from the following two-line orbital elements,

1 12849U 81094B   14245.08750226  .00000649  00000-0  61377-4 0  9696
2 12849 082.4925 227.9191 0910009 272.2879 077.4489 13.48243348604473
Epoch (UTC): 02 September 2014 02:06:00
Eccentricity: 0.0910009
inclination: 82.4925°
perigee height: 400 km
apogee height: 1757 km
right ascension of ascending node: 227.9191°
argument of perigee: 272.2879°
revolutions per day: 13.48243348
mean anomaly at epoch: 77.4489°
orbit number at epoch: 60447

The dashed part of the orbit path shows where the satellite is in the earth's shadow,  

DLR